[[{"header":{"parameterUnit":"m.s-1","parameterCategory":1,"la1":30.2992,"la2":30.254,"lo1":-89.0895,"lo2":-89.0443,"dy":0.0025,"dx":0.0025,"nx":19,"ny":19,"refTime":"2026-03-16T09:00:00:Z","depth":0,"parameterNumber":2,"parameterNumberName":"U-component_of_WINDS"},"data":[0,0,0,4.4896,4.4897,4.4945,4.4945,4.5015,4.5015,0,0,0,0,0,0,0,0,0,0,0,4.4888,4.4888,4.4896,4.4897,4.4945,4.4945,4.5015,4.5015,0,0,0,0,0,0,0,0,0,0,0,4.4887,4.4888,4.4889,4.4898,4.4945,4.4945,4.5014,4.4975,0,0,0,0,0,0,0,0,0,0,4.4928,4.4925,4.4888,4.4889,4.4898,4.4945,4.4945,4.4973,4.4978,4.4998,0,4.5016,0,4.5017,4.5021,4.5021,0,0,0,4.4893,4.4922,4.493,4.4889,4.4898,4.4944,4.4922,4.4976,4.4981,4.5004,4.5017,4.5019,4.5018,4.5021,4.5022,4.5151,4.5152,0,0,4.489,4.4899,4.4926,4.4933,4.4926,4.4921,4.4924,4.4979,4.4994,4.5017,4.5021,4.502,4.5022,4.5022,4.515,4.5151,0,0,0,4.4886,4.4897,4.4904,4.4931,4.4938,4.4922,4.4926,4.4991,4.4993,4.5022,4.502,4.5022,4.5023,4.5149,4.5151,4.5199,0,0,0,4.4884,4.4894,4.4903,4.4908,4.4938,4.4965,4.4937,4.4989,4.4995,4.502,4.5022,4.5024,4.5148,4.515,4.5196,4.522,0,0,0,4.4883,4.4894,4.4903,4.4909,4.4929,4.4964,4.4969,4.499,4.4995,4.5021,4.5024,4.5148,4.515,4.5193,4.5215,4.5257,0,0,0,4.4883,4.4944,4.4904,4.4972,4.4929,4.4994,4.4968,4.5016,4.5045,4.5023,4.5148,4.515,4.5192,4.5212,4.5254,4.5294,4.5311,0,0,4.4964,4.4954,4.4993,4.4959,4.5034,4.4986,4.5068,4.5086,4.508,4.5128,4.5131,4.5197,4.5215,4.5256,4.5406,4.542,0,0,0,4.5022,4.505,4.5068,4.5097,4.5113,4.5129,4.5134,4.5141,4.5181,4.5107,4.5223,4.5234,4.5258,4.5276,4.5288,4.5309,4.5159,4.5159,4.5159,4.5147,4.5139,4.5204,4.5202,4.523,4.5236,4.5259,4.5269,4.5251,4.5279,4.5292,4.5385,4.5407,4.5415,4.5437,4.5313,4.5313,4.5313,4.5314,4.5265,4.5305,4.5282,4.5337,4.5329,4.5374,4.5384,4.537,4.5412,4.5373,4.5394,4.5351,4.5431,4.5449,4.5317,4.5317,4.5316,4.5316,4.5315,4.5346,4.5364,4.5373,4.5415,4.5449,4.5445,4.5488,4.5478,4.5469,4.549,4.5504,4.5503,4.5501,4.5498,4.5498,4.5498,4.5498,4.5499,4.5499,4.5426,4.5435,4.5472,4.5497,4.5516,4.5539,4.5548,4.5566,4.5584,4.5573,4.5573,4.5553,4.5441,4.5412,4.5504,4.5503,4.5502,4.5502,4.5501,4.5547,4.5519,4.5576,4.5596,4.5626,4.5661,4.565,4.5688,4.5701,4.5723,4.57,4.5618,4.5606,4.5597,4.5573,4.5701,4.5701,4.5701,4.5701,4.5615,4.5609,4.5667,4.5699,4.5728,4.5725,4.5791,4.58,4.5805,4.5813,4.5794,4.5762,4.5753,4.5747,4.5734,4.5712,4.5872,4.5872,4.5872,4.569,4.5687,4.5745,4.575,4.5774,4.5795,4.5858,4.5895,4.5895,4.5879,4.582,4.5812,4.5761,4.5745,4.5726,4.5706,4.5665,0,0]},{"header":{"parameterUnit":"m.s-1","parameterCategory":1,"la1":30.2992,"la2":30.254,"lo1":-89.0895,"lo2":-89.0443,"dy":0.0025,"dx":0.0025,"nx":19,"ny":19,"refTime":"2026-03-16T09:00:00:Z","depth":0,"parameterNumber":3,"parameterNumberName":"V-component_of_WINDS"},"data":[0,0,0,-7.7881,-7.7885,-7.8049,-7.8049,-7.826,-7.8262,0,0,0,0,0,0,0,0,0,0,0,-7.7834,-7.7836,-7.7881,-7.7885,-7.8049,-7.8049,-7.8259,-7.8262,0,0,0,0,0,0,0,0,0,0,0,-7.7834,-7.7835,-7.7837,-7.7886,-7.8049,-7.8049,-7.8259,-7.8134,0,0,0,0,0,0,0,0,0,0,-7.7975,-7.7934,-7.7835,-7.7837,-7.7886,-7.8048,-7.805,-7.8128,-7.8142,-7.8186,0,-7.8227,0,-7.8248,-7.8276,-7.8277,0,0,0,-7.7883,-7.7923,-7.7966,-7.7838,-7.7888,-7.8048,-7.7974,-7.8136,-7.8152,-7.8204,-7.823,-7.8238,-7.8252,-7.8277,-7.8278,-7.8546,-7.8547,0,0,-7.7874,-7.7864,-7.7955,-7.7976,-7.7953,-7.7969,-7.7979,-7.8145,-7.8172,-7.8231,-7.8243,-7.8255,-7.8279,-7.828,-7.8544,-7.8546,0,0,0,-7.7849,-7.7858,-7.7897,-7.7967,-7.7997,-7.7974,-7.7986,-7.8165,-7.8178,-7.8245,-7.8258,-7.828,-7.8282,-7.8543,-7.8545,-7.8604,0,0,0,-7.7843,-7.7844,-7.7893,-7.7889,-7.7994,-7.8083,-7.8001,-7.8167,-7.8186,-7.8257,-7.828,-7.8285,-7.8541,-7.8544,-7.8599,-7.8633,0,0,0,-7.7823,-7.7841,-7.7866,-7.7888,-7.7959,-7.8081,-7.8104,-7.8171,-7.8194,-7.8277,-7.8285,-7.854,-7.8543,-7.8595,-7.8626,-7.8702,0,0,0,-7.7797,-7.7914,-7.7867,-7.8002,-7.7957,-7.8117,-7.8103,-7.8222,-7.83,-7.8281,-7.8542,-7.8545,-7.8594,-7.8622,-7.8697,-7.8764,-7.8791,0,0,-7.7939,-7.7931,-7.8011,-7.7974,-7.814,-7.8093,-7.8268,-7.8346,-7.8361,-7.8483,-7.8489,-7.8601,-7.8625,-7.8701,-7.8946,-7.8967,0,0,0,-7.8053,-7.811,-7.8156,-7.8232,-7.8298,-7.8357,-7.8411,-7.844,-7.8545,-7.8423,-7.8649,-7.8664,-7.8708,-7.874,-7.8759,-7.8798,-7.8559,-7.8559,-7.8559,-7.8238,-7.8254,-7.8389,-7.8425,-7.8499,-7.8556,-7.8617,-7.8666,-7.8658,-7.8711,-7.8747,-7.8894,-7.8932,-7.8946,-7.8986,-7.8784,-7.8784,-7.8784,-7.8784,-7.8447,-7.8531,-7.8522,-7.8649,-7.8666,-7.8772,-7.8831,-7.8823,-7.8923,-7.8868,-7.8908,-7.8846,-7.8969,-7.9005,-7.8789,-7.8788,-7.8788,-7.8787,-7.8787,-7.857,-7.8613,-7.865,-7.8764,-7.8849,-7.8882,-7.898,-7.8991,-7.9,-7.904,-7.908,-7.9079,-7.9079,-7.9059,-7.9059,-7.906,-7.906,-7.9061,-7.9061,-7.8682,-7.8722,-7.8805,-7.8887,-7.8939,-7.9008,-7.9068,-7.9118,-7.9177,-7.9176,-7.9177,-7.9164,-7.8978,-7.8931,-7.9069,-7.9067,-7.9066,-7.9066,-7.9065,-7.8887,-7.8844,-7.8972,-7.9024,-7.9122,-7.9207,-7.9221,-7.9324,-7.9367,-7.9415,-7.9395,-7.9256,-7.9247,-7.9233,-7.9194,-7.9391,-7.9391,-7.9391,-7.9391,-7.8991,-7.8989,-7.9124,-7.9207,-7.9289,-7.9316,-7.9459,-7.9508,-7.955,-7.9578,-7.9551,-7.9501,-7.9486,-7.9486,-7.9466,-7.943,-7.9683,-7.9683,-7.9683,-7.9118,-7.9125,-7.9246,-7.929,-7.9369,-7.9436,-7.9572,-7.9666,-7.9705,-7.9695,-7.96,-7.9588,-7.9507,-7.948,-7.9465,-7.9434,-7.9368,0,0]}]]